User: anonymous   Login
Location: Unspecified
(0.0000°N, 0.0000°E)
Time: 00:03:47
(UTC+00:00)
Language:

YAM-8 - Orbit

View from above orbital plane
View from above orbital plane
View from above satellite
View from above satellite

Ground track
Ground track

The orbit is defined by the following mean orbital elements,

1 63254U          26145.46603126 +.00000000 +00000-0 +29529-3 0 00009
2 63254  97.6964  46.7885 0000909 315.8835  44.2322 15.11650048    00
Epoch (UTC): 25 May 2026 11:11:05
Eccentricity: 0.0000909
inclination: 97.6964°
perigee height: 531 km
apogee height: 532 km
right ascension of ascending node: 46.7885°
argument of perigee: 315.8835°
revolutions per day: 15.11650048
mean anomaly at epoch: 44.2322°

The dashed part of the orbit path shows where the satellite is in the earth's shadow,  

DLR